This demonstration page uses our WeatherBlox Daily Observations layout. Learn more.

Left ArrowRight Arrow

38.80484, -77.04692

Hourly Observations for February 25, 2016

Temp ( °F °C ) Dew Point ( °F °C ) Humidity (%) Winds ( mph kmh ) Pressure ( in mb ) Visibility ( mi km ) Precip ( " mm )
12:52 am 00:52 Clear 57 13.9 43 6.1 60 60 SSW 20 31 29.31 992 10 16 0.00 0.00
1:52 am 01:52 Mostly Clear 55 12.8 42 5.6 62 62 SSW 20 31 29.31 993 10 16 0.00 0.00
2:52 am 02:52 Mostly Clear 53 11.7 39 3.9 59 59 SSW 17 28 29.31 992 10 16 0.00 0.00
3:52 am 03:52 Mostly Cloudy 53 11.7 39 3.9 59 59 SSW 20 31 29.31 993 10 16 0.00 0.00
4:52 am 04:52 Mostly Cloudy 51 10.6 38 3.3 61 61 SW 22 35 29.32 993 10 16 0.00 0.00
5:52 am 05:52 Mostly Cloudy 49 9.4 36 2.2 61 61 SW 22 35 29.34 994 10 16 0.00 0.00
6:52 am 06:52 Mostly Cloudy with Light Rain 48 8.9 33 0.6 56 56 W 15 24 29.38 995 10 16 0.00 0.03
7:52 am 07:52 Cloudy 47 8.3 36 2.2 66 66 WSW 8 13 29.41 996 10 16 0.00 0.03
8:52 am 08:52 Cloudy 47 8.3 29 -1.7 50 50 W 18 30 29.44 997 10 16 0.00 0.00
9:52 am 09:52 Cloudy 49 9.4 29 -1.7 46 46 W 12 19 29.45 997 10 16 0.00 0.00
10:52 am 10:52 Cloudy 48 8.9 26 -3.3 42 42 WSW 16 26 29.47 998 10 16 0.00 0.00
11:52 am 11:52 Cloudy 47 8.3 28 -2.2 48 48 WSW 15 24 29.48 998 10 16 0.00 0.00
12:52 pm 12:52 Cloudy 47 8.3 25 -3.9 42 42 W 23 37 29.50 999 10 16 0.00 0.00
1:52 pm 13:52 Cloudy 47 8.3 26 -3.3 44 44 W 15 24 29.52 1000 10 16 0.00 0.00
2:52 pm 14:52 Cloudy 47 8.3 24 -4.4 41 41 W 22 35 29.55 1001 10 16 0.00 0.03
3:52 pm 15:52 Cloudy 46 7.8 25 -3.9 44 44 W 20 31 29.57 1002 10 16 0.00 0.00
4:52 pm 16:52 Cloudy 46 7.8 24 -4.4 42 42 W 18 30 29.61 1003 10 16 0.00 0.00
5:52 pm 17:52 Cloudy 46 7.8 24 -4.4 42 42 W 14 22 29.63 1003 10 16 0.00 0.00
6:52 pm 18:52 Cloudy 45 7.2 24 -4.4 44 44 W 14 22 29.65 1004 10 16 0.00 0.00
7:05 pm 19:05 Mostly Cloudy 45 7.2 25 -3.9 46 46 W 16 26 29.65 1004 10 16 0.00 0.00
7:52 pm 19:52 Mostly Cloudy 44 6.7 23 -5 43 43 W 15 24 29.68 1005 10 16 0.00 0.00
8:52 pm 20:52 Mostly Cloudy 43 6.1 24 -4.4 47 47 W 10 17 29.71 1006 10 16 0.00 0.00
9:52 pm 21:52 Mostly Cloudy 43 6.1 23 -5 45 45 W 24 39 29.73 1007 10 16 0.00 0.00
10:52 pm 22:52 Cloudy 41 5 23 -5 49 49 WNW 15 24 29.75 1008 10 16 0.00 0.00
11:11 pm 23:11 Cloudy with Light Snow 41 5 23 -5 49 49 WNW 16 26 29.77 1008 10 16 0.00 0.03
11:52 pm 23:52 Cloudy 40 4.4 23 -5 51 51 WNW 22 35 29.79 1009 10 16 0.00 0.03

Powered by AerisWeather